Regional Weather Roundup
Issued by NWS

Home | Current Version | Previous Version | Graphics & Text | Print | Product List | Glossary On
Versions: 1 2 3 4 5 6 7 8 9 10 11 12 13 14 15 16 17 18 19 20 21 22 23 24 25 26 27 28 29 30 31 32 33 34 35 36 37 38 39 40 41 42 43 44 45 46 47 48 49 50
000
ASUS45 KPSR 061510
RWRAZ

ARIZONA HOURLY REGIONAL WEATHER ROUNDUP
NATIONAL WEATHER SERVICE PHOENIX AZ
800 AM MST MON JUL 06 2015

NOTE: FAIR INDICATES FEW OR NO CLOUDS BELOW 12,000 FEET WITH NO
SIGNIFICANT WEATHER AND/OR OBSTRUCTIONS TO VISIBILITY.

AZZ001>003-036-061600-
NORTHWEST ARIZONA

CITY           SKY/WX    TMP DP  RH WIND       PRES   REMARKS
BULLHEAD CITY  SUNNY     86  61  42 S7        29.96R
KINGMAN        SUNNY     80  59  48 SW3       30.11R
$$

AZZ004>008-015-016-018-061600-
NORTH CENTRAL ARIZONA

CITY           SKY/WX    TMP DP  RH WIND       PRES   REMARKS
GRAND CANYON   CLOUDY    64  52  64 NW5       30.31S
WILLIAMS       PTSUNNY   63  54  72 CALM      30.40R
PRESCOTT       MOSUNNY   67  58  72 SE3       30.24R
FLAGSTAFF      MOSUNNY   63  50  62 VRB3      30.33S
PAYSON         PTSUNNY   72  59  64 CALM      30.24S
PAGE           CLOUDY    79  52  38 N9        30.13R
$$

AZZ009>014-017-061600-
NORTHEAST ARIZONA

CITY           SKY/WX    TMP DP  RH WIND       PRES   REMARKS
WINSLOW        PTSUNNY   73  58  59 W6        30.20R
SAINT JOHNS    SUNNY     73  54  51 NW5       30.23R
SHOW LOW       PTSUNNY   63  54  72 S10       30.30R
$$

AZZ023-061600-
GREATER PHOENIX AREA

CITY           SKY/WX    TMP DP  RH WIND       PRES   REMARKS
PHOENIX        MOSUNNY   83  66  56 E5        29.96R
BUCKEYE        SUNNY     82  72  69 E6        29.98R
GLENDALE       MOSUNNY   79  73  83 CALM      29.99R
LUKE AFB       SUNNY     82  68  61 NW5       29.97R
DEER VALLEY    MOSUNNY   79  66  64 CALM      29.98R
SCOTTSDALE     PTSUNNY   80  66  62 S3        30.00R
MESA-FALCON    PTSUNNY   79  70  73 SW9       29.98F
MESA-GATEWAY   MOSUNNY   82  70  65 SE5       30.00F
CHANDLER       MOSUNNY   84  68  58 E5        29.98F
$$

AZZ027-028-061600-
SOUTHWEST MARICOPA COUNTY AND PINAL COUNTY

CITY           SKY/WX    TMP DP  RH WIND       PRES   REMARKS
CASA GRANDE    SUNNY     82  68  61 S3        29.99F
GILA BEND      MOSUNNY   90  65  43 S9        29.95R
$$

AZZ503-504-507>509-061600-
SOUTHEAST ARIZONA

CITY           SKY/WX    TMP DP  RH WIND       PRES   REMARKS
TUCSON         MOSUNNY   79  64  60 CALM      30.11R
DAVIS-MONTHAN  MOSUNNY   79  66  65 S3        30.09S HAZE
RYAN FIELD     PTSUNNY   81  66  61 CALM      30.09S
NOGALES        SUNNY     76  63  64 CALM      30.18R
SIERRA VISTA   SUNNY     75  60  58 NW9G18    30.23R
DOUGLAS        MOSUNNY   73  64  73 CALM      30.18R
SAFFORD        MOSUNNY   75  66  73 CALM      30.08R
$$

AZZ020-021-025-026-031-061600-
SOUTHWEST ARIZONA

CITY           SKY/WX    TMP DP  RH WIND       PRES   REMARKS
YUMA           SUNNY     91  56  30 S6        29.91R
$$

CAZ031-033-041-043-047-048-061-061600-
SOUTHERN CALIFORNIA

CITY           SKY/WX    TMP DP  RH WIND       PRES   REMARKS
DOWNTOWN L.A.  CLOUDY    66  59  78 CALM      30.04R
L.A. AIRPORT   CLOUDY    64  60  87 CALM      30.05R
SAN DIEGO      CLOUDY    67  59  75 NW3       30.06R
BURBANK        CLOUDY    65  58  78 S6        30.04R
ONTARIO        CLOUDY    66  58  75 S3        30.04S HAZE
RIVERSIDE      CLOUDY    66  59  78 CALM      30.05R
PALM SPRINGS   SUNNY     83  58  42 NW7       29.95S
EL CENTRO NAS  MOSUNNY   85  69  58 SE10      29.91S
IMPERIAL       SUNNY     85  69  58 SE9       29.89R
BLYTHE         SUNNY     90  65  43 VRB3      29.92R
NEEDLES        SUNNY     89  60  37 E5        29.96R
$$

NVZ020-UTZ003-061600-
SOUTHERN NEVADA-UTAH

CITY           SKY/WX    TMP DP  RH WIND       PRES   REMARKS
LAS VEGAS      CLOUDY    85  55  35 S12       29.97R
SALT LAKE CITY MOSUNNY   77  57  50 S3        30.11R
$$

NMZ009-TXZ055-061600-
NEW MEXICO-WEST TEXAS

CITY           SKY/WX    TMP DP  RH WIND       PRES   REMARKS
ALBUQUERQUE    PTSUNNY   73  59  61 CALM      30.19R
EL PASO        PTSUNNY   79  60  52 SW14      30.08R
$$


........................KEY........................
SKY/WX - SKY CONDITION/WEATHER
TMP    - TEMPERATURE IN FAHRENHEIT
DP     - DEW POINT IN FAHRENHEIT
RH     - RELATIVE HUMIDITY IN PERCENT
WIND   - DIRECTION AND SPEED IN MILES PER HOUR (MPH)
VRB    - VARIABLE WIND DIRECTION
PRES   - MEAN SEA LEVEL PRESSURE IN INCHES OF MERCURY
         F - FALLING PRESSURE   R - RISING PRESSURE
         S - STEADY PRESSURE
VSB    - VISIBILITY IN MILES
HX     - HEAT INDEX IN FAHRENHEIT
WCI    - WIND CHILL INDEX IN FAHRENHEIT
TC     - TEMPERATURE IN CELSIUS WHICH IS ALSO KNOWN AS
         TEMPERATURE IN CENTIGRADE
AFB    - AIR FORCE BASE
         LUKE AFB IS LUKE AIR FORCE BASE
         DAVIS-MONTHAN IS DAVIS-MONTHAN AIR FORCE BASE
NAS    - NAVAL AIR STATION
         EL CENTRO NAS IS EL CENTRO NAVAL AIR STATION
N/A    - NOT AVAILABLE



USA.gov is the U.S. government's official web portal to all federal, state and local government web resources and services.